Site-Specific Forecast Table for Stillwater
DATE TIME TAIR TDEW RELH WDIR WSPD 1-hr PRECIP SRAD CLOUD
Mon May 29, 2017 11:00 pm CDT 71°F 57°F 62% NNE 2 mph 0.00 in. 0 W/m2 2%
Tue May 30, 2017 12:00 am CDT 70°F 58°F 66% ENE 1 mph 0.00 in. 0 W/m2 4%
Tue May 30, 2017 1:00 am CDT 68°F 58°F 70% SSE 1 mph 0.00 in. 0 W/m2 6%
Tue May 30, 2017 2:00 am CDT 66°F 58°F 75% SSW 1 mph 0.00 in. 0 W/m2 6%
Tue May 30, 2017 3:00 am CDT 64°F 58°F 80% WSW 2 mph 0.00 in. 0 W/m2 5%
Tue May 30, 2017 4:00 am CDT 62°F 58°F 86% WSW 3 mph 0.00 in. 0 W/m2 5%
Tue May 30, 2017 5:00 am CDT 62°F 58°F 87% WSW 2 mph 0.00 in. 0 W/m2 28%
Tue May 30, 2017 6:00 am CDT 62°F 58°F 87% W 2 mph 0.00 in. 0 W/m2 51%
Tue May 30, 2017 7:00 am CDT 62°F 58°F 88% WNW 2 mph 0.00 in. 67 W/m2 75%
Tue May 30, 2017 8:00 am CDT 63°F 58°F 84% NNW 2 mph 0.00 in. 70 W/m2 83%
Tue May 30, 2017 9:00 am CDT 65°F 58°F 80% NNW 4 mph 0.00 in. 73 W/m2 91%
Tue May 30, 2017 10:00 am CDT 67°F 59°F 75% N 6 mph 0.00 in. 77 W/m2 100%
Tue May 30, 2017 11:00 am CDT 68°F 59°F 73% NNE 8 mph 0.00 in. 226 W/m2 94%
Tue May 30, 2017 12:00 pm CDT 69°F 59°F 71% NNE 10 mph 0.00 in. 375 W/m2 88%
Tue May 30, 2017 1:00 pm CDT 70°F 60°F 70% NNE 13 mph 0.00 in. 525 W/m2 82%
Tue May 30, 2017 2:00 pm CDT 72°F 60°F 68% NE 11 mph 0.00 in. 579 W/m2 79%
Tue May 30, 2017 3:00 pm CDT 73°F 61°F 66% ENE 10 mph 0.00 in. 633 W/m2 76%
Tue May 30, 2017 4:00 pm CDT 75°F 62°F 64% E 11 mph 0.00 in. 687 W/m2 74%
Tue May 30, 2017 5:00 pm CDT 74°F 62°F 67% E 10 mph 0.00 in. 539 W/m2 56%
Tue May 30, 2017 6:00 pm CDT 73°F 62°F 69% ESE 10 mph 0.00 in. 391 W/m2 38%
DATE TIME TAIR TDEW RELH WDIR WSPD 1-hr PRECIP SRAD CLOUD
Tue May 30, 2017 7:00 pm CDT 72°F 62°F 72% ESE 9 mph 0.00 in. 243 W/m2 19%
Tue May 30, 2017 8:00 pm CDT 69°F 62°F 79% ESE 8 mph 0.00 in. 162 W/m2 13%
Tue May 30, 2017 9:00 pm CDT 66°F 62°F 86% ESE 6 mph 0.00 in. 0 W/m2 7%
Tue May 30, 2017 10:00 pm CDT 63°F 61°F 93% ESE 4 mph 0.00 in. 0 W/m2 0%
Tue May 30, 2017 11:00 pm CDT 62°F 60°F 95% E 4 mph 0.00 in. 0 W/m2 18%
Wed May 31, 2017 12:00 am CDT 61°F 60°F 96% E 4 mph 0.00 in. 0 W/m2 36%
Wed May 31, 2017 1:00 am CDT 60°F 59°F 98% E 4 mph 0.00 in. 0 W/m2 54%
Wed May 31, 2017 2:00 am CDT 58°F 57°F 98% E 3 mph 0.00 in. 0 W/m2 69%
Wed May 31, 2017 3:00 am CDT 56°F 56°F 97% E 2 mph 0.00 in. 0 W/m2 84%
Wed May 31, 2017 4:00 am CDT 55°F 54°F 97% E 2 mph 0.00 in. 0 W/m2 99%
Wed May 31, 2017 5:00 am CDT 54°F 53°F 97% E 2 mph 0.00 in. 0 W/m2 99%
Wed May 31, 2017 6:00 am CDT 53°F 52°F 97% E 2 mph 0.00 in. 0 W/m2 100%
Wed May 31, 2017 7:00 am CDT 52°F 51°F 97% E 2 mph 0.00 in. 43 W/m2 100%
Wed May 31, 2017 8:00 am CDT 58°F 56°F 92% SE 3 mph 0.00 in. 250 W/m2 70%
Wed May 31, 2017 9:00 am CDT 64°F 60°F 87% SE 5 mph 0.00 in. 457 W/m2 39%
Wed May 31, 2017 10:00 am CDT 70°F 65°F 83% SSE 6 mph 0.00 in. 664 W/m2 9%
Wed May 31, 2017 11:00 am CDT 75°F 66°F 73% SSE 6 mph 0.00 in. 773 W/m2 6%
Wed May 31, 2017 12:00 pm CDT 80°F 67°F 63% SSE 6 mph 0.00 in. 881 W/m2 3%
Wed May 31, 2017 1:00 pm CDT 85°F 66°F 53% SSE 6 mph 0.00 in. 990 W/m2 0%
Wed May 31, 2017 2:00 pm CDT 86°F 65°F 50% SSE 8 mph 0.00 in. 926 W/m2 0%
DATE TIME TAIR TDEW RELH WDIR WSPD 1-hr PRECIP SRAD CLOUD
Wed May 31, 2017 3:00 pm CDT 87°F 64°F 47% SE 10 mph 0.00 in. 863 W/m2 0%
Wed May 31, 2017 4:00 pm CDT 87°F 62°F 43% SE 12 mph 0.00 in. 800 W/m2 0%
Wed May 31, 2017 5:00 pm CDT 85°F 63°F 48% SE 12 mph 0.00 in. 589 W/m2 33%
Wed May 31, 2017 6:00 pm CDT 83°F 64°F 52% SSE 11 mph 0.00 in. 378 W/m2 67%
Wed May 31, 2017 7:00 pm CDT 82°F 65°F 56% SSE 10 mph 0.00 in. 166 W/m2 100%
Wed May 31, 2017 8:00 pm CDT 78°F 65°F 65% SE 9 mph 0.00 in. 111 W/m2 98%
Wed May 31, 2017 9:00 pm CDT 74°F 65°F 75% SE 8 mph 0.00 in. 0 W/m2 95%
Wed May 31, 2017 10:00 pm CDT 70°F 65°F 84% SE 7 mph 0.00 in. 0 W/m2 93%
Wed May 31, 2017 11:00 pm CDT 69°F 65°F 86% SE 7 mph 0.00 in. 0 W/m2 73%
Thu Jun 01, 2017 12:00 am CDT 68°F 64°F 88% SE 7 mph 0.00 in. 0 W/m2 53%
Thu Jun 01, 2017 1:00 am CDT 67°F 64°F 90% SE 7 mph 0.00 in. 0 W/m2 34%
Thu Jun 01, 2017 2:00 am CDT 66°F 63°F 89% SSE 7 mph 0.00 in. 0 W/m2 25%
Thu Jun 01, 2017 3:00 am CDT 65°F 62°F 88% SSE 8 mph 0.00 in. 0 W/m2 17%
Thu Jun 01, 2017 4:00 am CDT 65°F 61°F 87% SSE 9 mph 0.00 in. 0 W/m2 9%
Thu Jun 01, 2017 5:00 am CDT 65°F 61°F 88% SSE 8 mph 0.00 in. 0 W/m2 25%
Thu Jun 01, 2017 6:00 am CDT 65°F 61°F 89% SSE 7 mph 0.00 in. 0 W/m2 40%
Thu Jun 01, 2017 7:00 am CDT 65°F 62°F 90% SSE 7 mph 0.00 in. 49 W/m2 56%
Thu Jun 01, 2017 8:00 am CDT 69°F 64°F 83% SSE 9 mph 0.00 in. 137 W/m2 53%
Thu Jun 01, 2017 9:00 am CDT 74°F 66°F 76% SSE 10 mph 0.00 in. 225 W/m2 49%
Thu Jun 01, 2017 10:00 am CDT 78°F 68°F 70% SSE 12 mph 0.00 in. 312 W/m2 46%
DATE TIME TAIR TDEW RELH WDIR WSPD 1-hr PRECIP SRAD CLOUD
Thu Jun 01, 2017 11:00 am CDT 81°F 68°F 66% SSE 13 mph 0.00 in. 517 W/m2 51%
Thu Jun 01, 2017 12:00 pm CDT 83°F 69°F 63% SSE 13 mph 0.00 in. 721 W/m2 55%
Thu Jun 01, 2017 1:00 pm CDT 85°F 69°F 59% SSE 13 mph 0.00 in. 925 W/m2 60%
Thu Jun 01, 2017 2:00 pm CDT 85°F 69°F 59% SSE 13 mph 0.00 in. 800 W/m2 61%
Thu Jun 01, 2017 3:00 pm CDT 85°F 68°F 58% SSE 13 mph 0.00 in. 675 W/m2 62%
Thu Jun 01, 2017 4:00 pm CDT 84°F 67°F 57% SSE 13 mph 0.00 in. 550 W/m2 64%
Thu Jun 01, 2017 5:00 pm CDT 83°F 68°F 60% SSE 13 mph 0.00 in. 443 W/m2 45%
Thu Jun 01, 2017 6:00 pm CDT 82°F 69°F 63% SSE 14 mph 0.00 in. 336 W/m2 26%
Thu Jun 01, 2017 7:00 pm CDT 82°F 69°F 66% SSE 14 mph 0.00 in. 229 W/m2 7%
Thu Jun 01, 2017 8:00 pm CDT 78°F 68°F 72% SE 14 mph 0.00 in. 153 W/m2 12%
Thu Jun 01, 2017 9:00 pm CDT 74°F 67°F 78% SE 13 mph 0.00 in. 0 W/m2 17%
Thu Jun 01, 2017 10:00 pm CDT 70°F 65°F 84% SE 13 mph 0.00 in. 0 W/m2 22%
Thu Jun 01, 2017 11:00 pm CDT 69°F 66°F 89% SE 11 mph 0.00 in. 0 W/m2 30%
Fri Jun 02, 2017 12:00 am CDT 68°F 66°F 93% SE 9 mph 0.00 in. 0 W/m2 38%
Fri Jun 02, 2017 1:00 am CDT 67°F 66°F 98% SE 8 mph 0.00 in. 0 W/m2 47%
Fri Jun 02, 2017 2:00 am CDT 67°F 67°F 98% SSE 9 mph 0.00 in. 0 W/m2 57%
Fri Jun 02, 2017 3:00 am CDT 68°F 67°F 98% SSE 10 mph 0.00 in. 0 W/m2 67%
Fri Jun 02, 2017 4:00 am CDT 69°F 68°F 97% SSE 12 mph 0.00 in. 0 W/m2 77%
Fri Jun 02, 2017 5:00 am CDT 69°F 68°F 97% SSE 13 mph 0.01 in. 0 W/m2 84%
Fri Jun 02, 2017 6:00 am CDT 70°F 69°F 98% SSE 14 mph 0.01 in. 0 W/m2 92%
DATE TIME TAIR TDEW RELH WDIR WSPD 1-hr PRECIP SRAD CLOUD
Fri Jun 02, 2017 7:00 am CDT 70°F 69°F 98% SSE 14 mph 0.01 in. 21 W/m2 99%